Weather observations for the past three days for
Waukesha County Airport
Imperial (Metric)
Date Time (cdt) Wind (mph) Vis. (mi.) Weather Sky Cond. Temperature (ºF) Relative Humidity Wind Chill (°F) Heat Index (°F) Pressure Precipitation (in)
Air Dwpt 6 hour altimeter (in) sea level (mb) 1 hr 3 hr 6 hr
Max. Min.
19 21:35 S 3 10.00 Fair CLR 64.4 53.6 68% 30.14 0.0
19 21:15 Calm 10.00 Fair CLR 64.4 53.6 68% 30.13 0.0
19 20:55 SW 3 10.00 Fair CLR 66.2 53.6 64% 30.13 0.0
19 20:45 SW 3 10.00 Fair CLR 66.2 55.4 68% 30.13 0.0
19 19:45 SW 5 10.00 Fair CLR 69.8 53.6 57% 30.13 0.0
19 18:45 SW 3 10.00 Partly Cloudy SCT060 73.4 51.8 47% 30.13 0.0
19 17:45 SW 5 10.00 Partly Cloudy SCT055 73.4 51.8 47% 30.13 0.0
19 16:45 W 5 10.00 Partly Cloudy SCT055 75.2 51.8 44% 78 30.14 0.0
19 15:45 W 9 10.00 Mostly Cloudy BKN060 73.4 51.8 47% 30.16 0.0
19 14:45 W 6 10.00 Mostly Cloudy BKN060 73.4 51.8 47% 30.17 0.0
19 13:45 NW 7 10.00 Overcast OVC050 73.4 53.6 50% 30.17 0.0
19 12:45 W 6 10.00 Partly Cloudy SCT050 SCT060 73.4 51.8 47% 30.19 0.0
19 11:45 W 6 10.00 Mostly Cloudy BKN050 71.6 51.8 50% 30.2 0.0
19 10:45 W 7 10.00 Fair CLR 71.6 53.6 53% 30.21 0.0
19 09:45 W 7 10.00 Fair CLR 69.8 53.6 57% 30.21 0.0
19 08:45 W 7 10.00 Fair CLR 66.2 55.4 68% 30.23 0.0
19 07:45 Calm 10.00 Fair CLR 62.6 55.4 77% 30.23 0.0
19 06:45 Calm 10.00 Fair CLR 55.4 51.8 88% 30.22 0.0
19 05:45 Calm 10.00 Fair CLR 53.6 51.8 94% 30.21 0.0
19 05:35 Calm 10.00 Fair CLR 53.6 50 88% 30.21 0.0
19 05:15 Calm 10.00 Fair CLR 53.6 51.8 94% 30.21 0.0
19 04:55 Calm 10.00 Fair CLR 53.6 51.8 94% 30.2 0.0
19 04:35 Calm 10.00 Fair CLR 55.4 51.8 88% 30.2 0.0
19 04:15 SW 3 10.00 Fair CLR 55.4 51.8 88% 30.2 0.0
19 03:55 Calm 10.00 Fair CLR 55.4 51.8 88% 30.19 0.0
19 03:35 SW 3 10.00 Fair CLR 53.6 51.8 94% 30.19 0.0
19 03:15 SW 3 10.00 Fair CLR 55.4 51.8 88% 30.19 0.0
19 02:55 SW 3 10.00 Fair CLR 55.4 51.8 88% 30.19 0.0
19 02:35 SW 5 10.00 Fair CLR 55.4 51.8 88% 30.19 0.0
19 02:15 Calm 10.00 Fair CLR 55.4 51.8 88% 30.19 0.0
19 01:55 Calm 10.00 Fair CLR 55.4 51.8 88% 30.19 0.0
19 01:35 Calm 10.00 Fair CLR 57.2 51.8 82% 30.19 0.0
19 01:15 SW 5 10.00 Fair CLR 57.2 51.8 82% 30.19 0.0
19 00:55 S 5 10.00 Fair CLR 57.2 51.8 82% 30.2 0.0
19 00:35 SW 5 10.00 Fair CLR 57.2 51.8 82% 30.2 0.0
19 00:15 Calm 10.00 Fair CLR 59 51.8 77% 30.2 0.0
18 23:55 Calm 10.00 Fair CLR 59 51.8 77% 30.2 0.0
18 23:35 Calm 10.00 Fair CLR 59 51.8 77% 30.2 0.0
18 23:15 S 3 10.00 Fair CLR 59 51.8 77% 30.2 0.0
18 22:55 Calm 10.00 Fair CLR 59 51.8 77% 30.2 0.0
18 21:55 S 6 10.00 Fair CLR 60.8 51.8 72% 30.2 0.0
18 21:35 S 6 10.00 Fair CLR 62.6 51.8 68% 30.19 0.0
18 21:15 Calm 10.00 Fair CLR 59 51.8 77% 30.19 0.0
18 20:55 Calm 10.00 Fair CLR 60.8 50 68% 30.18 0.0
18 20:45 Calm 10.00 Fair CLR 64.4 51.8 64% 30.18 0.0
18 19:45 NW 5 10.00 Fair CLR 69.8 48.2 46% 30.18 0.0
18 18:45 NW 7 10.00 Partly Cloudy SCT070 71.6 48.2 44% 30.19 0.0
18 17:45 W 7 10.00 Partly Cloudy SCT055 73.4 46.4 38% 30.19 0.0
18 16:45 Calm 10.00 Mostly Cloudy SCT055 BKN070 71.6 48.2 44% 30.2 0.0
18 15:45 W 6 10.00 Mostly Cloudy BKN065 69.8 48.2 46% 30.21 0.0
18 14:45 NW 7 10.00 Mostly Cloudy BKN050 BKN065 69.8 48.2 46% 30.21 0.0
18 13:45 N 5 10.00 Mostly Cloudy BKN065 69.8 50 50% 30.22 0.0
18 12:45 W 5 10.00 Mostly Cloudy SCT060 BKN065 69.8 48.2 46% 30.22 0.0
18 11:45 NW 6 10.00 Mostly Cloudy SCT048 BKN060 68 48.2 49% 30.22 0.0
18 10:45 N 7 10.00 Partly Cloudy SCT043 69.8 50 50% 30.23 0.0
18 09:45 N 7 10.00 Partly Cloudy SCT045 66.2 50 56% 30.23 0.0
18 08:45 NW 8 10.00 Fair CLR 64.4 50 60% 30.23 0.0
18 07:45 NW 7 10.00 Fair CLR 60.8 51.8 72% 30.22 0.0
18 06:45 NW 6 10.00 Fair CLR 57.2 51.8 82% 30.21 0.0
18 05:45 Calm 10.00 Fair CLR 53.6 50 88% 30.2 0.0
18 05:35 Calm 10.00 Fair CLR 53.6 50 88% 30.2 0.0
18 05:15 Calm 10.00 Fair CLR 53.6 50 88% 30.2 0.0
18 04:55 Calm 10.00 Fair CLR 53.6 50 88% 30.19 0.0
18 04:35 Calm 10.00 Fair CLR 53.6 50 88% 30.19 0.0
18 04:15 Calm 10.00 Fair CLR 53.6 50 88% 30.19 0.0
18 03:55 Calm 10.00 Fair CLR 53.6 50 88% 30.18 0.0
18 03:35 Calm 10.00 Fair CLR 53.6 50 88% 30.18 0.0
18 03:15 Calm 10.00 Fair CLR 53.6 50 88% 30.18 0.0
18 02:55 Calm 10.00 Fair CLR 53.6 51.8 94% 30.18 0.0
18 02:35 Calm 10.00 Fair CLR 53.6 51.8 94% 30.17 0.0
18 02:15 Calm 10.00 Fair CLR 55.4 51.8 88% 30.17 0.0
18 01:55 Calm 10.00 Fair CLR 55.4 51.8 88% 30.17 0.0
18 01:35 Calm 10.00 Fair CLR 55.4 51.8 88% 30.17 0.0
18 01:15 Calm 10.00 Fair CLR 57.2 51.8 82% 30.18 0.0
18 00:55 Calm 10.00 Fair CLR 57.2 51.8 82% 30.18 0.0
18 00:35 Calm 10.00 Fair CLR 59 53.6 82% 30.17 0.0
18 00:15 Calm 10.00 Fair CLR 59 53.6 82% 30.17 0.0
17 23:55 NE 3 10.00 Fair CLR 59 53.6 82% 30.16 0.0
17 23:35 NE 5 10.00 Partly Cloudy SCT060 60.8 53.6 77% 30.15 0.0
17 23:15 NE 8 10.00 Overcast SCT046 SCT060 OVC065 60.8 53.6 77% 30.15 0.0
17 22:55 NE 12 G 16 10.00 Overcast SCT038 BKN046 OVC060 60.8 51.8 72% 30.14 0.0
17 22:35 NE 7 10.00 Overcast BKN046 OVC060 62.6 50 64% 30.13 0.0
17 22:15 NW 3 10.00 Overcast OVC046 62.6 51.8 68% 30.13 0.0
17 21:55 N 3 10.00 Mostly Cloudy BKN044 BKN065 62.6 50 64% 30.13 0.0
17 21:35 NW 3 10.00 Partly Cloudy SCT050 SCT065 62.6 50 64% 30.12 0.0
17 21:10 NW 5 10.00 Mostly Cloudy SCT048 BKN065 62.6 50 64% 30.11 0.0
17 20:55 NW 6 10.00 Mostly Cloudy SCT050 BKN065 64.4 50 60% 30.1 0.0
17 20:45 NW 6 10.00 Overcast SCT050 OVC065 64.4 50 60% 30.1 0.0
17 19:45 N 7 10.00 Partly Cloudy SCT065 66.2 48.2 52% 30.09 0.0
17 18:45 NW 8 G 20 10.00 Mostly Cloudy BKN065 69.8 50 50% 30.08 0.0
17 17:45 NW 14 G 21 10.00 Partly Cloudy SCT055 69.8 50 50% 30.06 0.0
17 16:45 N 13 G 24 10.00 Partly Cloudy SCT049 SCT065 71.6 51.8 50% 30.05 0.0
17 15:45 NW 14 G 20 10.00 Mostly Cloudy SCT055 BKN075 71.6 50 47% 30.04 0.0
17 14:45 NW 12 G 18 10.00 Mostly Cloudy SCT050 SCT070 BKN080 73.4 51.8 47% 30.04 0.0
17 13:45 NW 13 G 21 10.00 Partly Cloudy SCT050 73.4 50 44% 30.03 0.0
17 12:45 NW 12 G 21 10.00 Partly Cloudy SCT050 71.6 51.8 50% 30.02 0.0
17 11:45 NW 12 G 18 10.00 Partly Cloudy SCT048 73.4 53.6 50% 30.01 0.0
17 10:45 NW 12 G 18 10.00 Fair CLR 71.6 55.4 57% 30 0.0
17 09:45 NW 12 10.00 Fair CLR 69.8 55.4 60% 29.99 0.0
17 08:45 NW 14 10.00 Fair CLR 66.2 57.2 73% 29.98 0.0
17 07:45 W 9 G 16 10.00 Fair CLR 66.2 57.2 73% 29.97 0.0
17 06:45 W 14 10.00 Fair CLR 64.4 59 83% 29.96 0.0
17 05:45 NW 6 10.00 Fair CLR 62.6 57.2 83% 29.95 0.0
17 05:35 W 3 10.00 Fair CLR 60.8 57.2 88% 29.95 0.0
17 05:15 NW 5 10.00 Fair CLR 60.8 57.2 88% 29.94 0.0
17 04:55 NW 6 10.00 Fair CLR 60.8 57.2 88% 29.93 0.0
17 04:35 NW 3 10.00 Fair CLR 62.6 57.2 83% 29.92 0.0
17 04:15 NW 6 10.00 Fair CLR 62.6 57.2 83% 29.91 0.0
17 03:55 W 6 10.00 Fair CLR 62.6 57.2 83% 29.91 0.0
17 03:35 NW 7 10.00 Fair CLR 62.6 57.2 83% 29.91 0.0
17 03:15 W 7 10.00 Fair CLR 62.6 57.2 83% 29.91 0.0
17 02:55 NW 7 10.00 Partly Cloudy SCT095 62.6 59 88% 29.91 0.0
17 02:35 W 7 10.00 Partly Cloudy SCT095 62.6 59 88% 29.91 0.0
17 02:15 NW 6 10.00 Fair CLR 62.6 59 88% 29.91 0.0
17 01:55 W 6 10.00 Fair CLR 62.6 59 88% 29.91 0.0
17 01:35 Calm 10.00 Partly Cloudy SCT120 62.6 59 88% 29.91 0.0
17 01:15 Calm 10.00 Partly Cloudy SCT120 64.4 59 83% 29.92 0.0
17 00:55 Calm 10.00 Mostly Cloudy SCT060 BKN120 66.2 59 78% 29.92 0.0
17 00:35 Calm 10.00 Mostly Cloudy SCT060 BKN120 64.4 59 83% 29.92 0.0
17 00:15 Calm 10.00 Mostly Cloudy SCT060 BKN120 68 59 73% 29.91 0.0
16 23:55 Calm 10.00 Mostly Cloudy SCT060 BKN120 68 60.8 78% 29.92 0.0
16 23:35 Calm 10.00 Overcast OVC120 66.2 62.6 88% 29.91 0.0
16 23:15 Calm 10.00 Partly Cloudy SCT120 66.2 62.6 88% 29.9 0.0
16 22:55 Calm 10.00 Partly Cloudy SCT120 64.4 62.6 94% 29.89 0.0
16 22:35 Calm 10.00 Fair CLR 66.2 62.6 88% 29.89 0.0
16 22:10 Calm 10.00 Fair CLR 66.2 60.8 83% 29.89 0.0
16 21:55 Calm 10.00 Fair CLR 68 60.8 78% 29.89 0.0
Date Time (cdt) Wind (mph) Vis. (mi.) Weather Sky Cond. Air Dwpt Max. Min. Relative Humidity Wind Chill (°F) Heat Index (°F) altimeter (in) sea level (mb) 1 hr 3 hr 6 hr
6 hour
Temperature (ºF) Pressure Precipitation (in)